Terminal Aerodrome Forecast
Issued by NWS Spokane, WA

Home | Current Version | Previous Version | Text Only | Print | Product List | Glossary On
Versions: 1 2 3 4 5 6 7 8 9 10 11 12 13 14 15 16 17 18 19 20 21 22 23 24 25 26 27 28
000
FTUS46 KOTX 162330
TAFEAT
TAF
KEAT 162330Z 1700/1724 10005KT P6SM SCT150 BKN200
     FM170500 32009KT P6SM BKN200
     FM171200 29007KT P6SM SCT100 BKN150
     FM171900 13005KT P6SM SCT090 BKN120 OVC150=

USA.gov is the U.S. government's official web portal to all federal, state and local government web resources and services.